4 Oct
2006
4 Oct
'06
10:08 p.m.
ISS 1 25544U 98067A 06277.98593750 .00017365 00000-0 11006-3 0 7999 2 25544 051.6377 341.8330 0012852 060.1235 312.1298 15.76560478450484
6652
Age (days ago)
6652
Last active (days ago)
0 comments
1 participants
participants (1)
-
Dave Larsen PhD